North Adams, MA

5:56 AM EDT on September 23, 2017 (GMT -0400)
Harriman And West

Weather History for KAQW - December, 2012

Change the Weather History Date:

Friday, December 14, 2012

  Actual Average Record
Temperature  
Mean Temperature 31 °F -  
Max Temperature 45 °F 36 °F 62 °F (2015)
Min Temperature 17 °F 21 °F -11 °F (2005)
Degree Days  
Heating Degree Days 34    
Moisture  
Dew Point 21 °F    
Average Humidity 65    
Maximum Humidity 88    
Minimum Humidity 37    
Precipitation  
Precipitation 0.00 in - - ()
Sea Level Pressure  
Sea Level Pressure 30.20 in    
Wind  
Wind Speed 3 mph (West)    
Max Wind Speed 16 mph    
Max Gust Speed 23 mph    
Visibility 9 miles    
Events      
Averages and records for this station are not official NWS values.
T = Trace of Precipitation, MM = Missing Value Source: NWS Daily Summary

Daily Weather History Graph

Daily Weather History Graph

Search for Another Location

Airport or City:

Trip Planner

Search our weather history database for the weather conditions in past years. The results will help you decide how hot, cold, wet, or windy it might be!

Date:

Astronomy

Dec. 14, 2012 Rise Set
Actual Time 7:15 AM EST 4:19 PM EST
Civil Twilight 6:43 AM EST 4:51 PM EST
Nautical Twilight 6:07 AM EST 5:27 PM EST
Astronomical Twilight 5:33 AM EST 6:01 PM EST
Moon 8:16 AM EST (12/14) 6:10 PM EST (12/14)
Length of Visible Light 10h 08m
Length of Day
9h 03m
Waxing Crescent, 3% of the Moon is Illuminated
Dec 14
Waxing Crescent
Dec 20
First Quarter
Dec 28
Full
Jan 4
Last Quarter
Jan 11
New

Hourly Weather History & Observations

Time (EST) Temp. Windchill Dew Point Humidity Pressure Visibility Wind Dir Wind Speed Gust Speed Precip Events Conditions
1:52 AM 19.0 °F - 15.1 °F 85% 30.28 in 8.0 mi Calm Calm - N/A   Clear
2:52 AM 19.9 °F - 16.0 °F 85% 30.27 in 7.0 mi Calm Calm - N/A   Clear
3:52 AM 19.9 °F - 15.1 °F 81% 30.25 in 8.0 mi Calm Calm - N/A   Clear
4:52 AM 18.0 °F - 15.1 °F 88% 30.25 in 7.0 mi Calm Calm - N/A   Clear
5:52 AM 18.0 °F - 12.9 °F 81% 30.24 in 7.0 mi Calm Calm - N/A   Clear
6:52 AM 17.1 °F - 12.9 °F 84% 30.24 in 8.0 mi Calm Calm - N/A   Clear
7:52 AM 17.1 °F - 12.0 °F 81% 30.23 in 6.0 mi Calm Calm - N/A   Haze
8:52 AM 23.0 °F - 18.0 °F 81% 30.22 in 6.0 mi Calm Calm - N/A   Haze
9:52 AM 28.0 °F - 21.9 °F 78% 30.21 in 7.0 mi Calm Calm - N/A   Clear
10:52 AM 33.1 °F - 24.1 °F 70% 30.17 in 10.0 mi Calm Calm - N/A   Clear
11:52 AM 42.1 °F - 19.9 °F 41% 30.14 in 10.0 mi Calm Calm - N/A   Clear
12:52 PM 45.0 °F 41.8 °F 19.9 °F 37% 30.13 in 10.0 mi Variable 5.8 mph 16.1 mph N/A   Clear
1:52 PM 42.1 °F 38.4 °F 21.9 °F 45% 30.14 in 10.0 mi Variable 5.8 mph - N/A   Overcast
2:52 PM 41.0 °F 34.3 °F 23.0 °F 49% 30.14 in 10.0 mi West 11.5 mph - N/A   Overcast
3:52 PM 41.0 °F 35.8 °F 24.1 °F 51% 30.15 in 10.0 mi West 8.1 mph - N/A   Overcast
4:52 PM 39.9 °F 34.5 °F 25.0 °F 55% 30.17 in 10.0 mi West 8.1 mph 16.1 mph N/A   Overcast
5:52 PM 39.9 °F 31.8 °F 25.0 °F 55% 30.18 in 10.0 mi West 15.0 mph 19.6 mph N/A   Overcast
6:52 PM 41.0 °F 32.8 °F 25.0 °F 53% 30.18 in 10.0 mi WSW 16.1 mph 23.0 mph N/A   Overcast
7:52 PM 39.9 °F 32.5 °F 26.1 °F 58% 30.19 in 10.0 mi West 12.7 mph - N/A   Overcast
8:52 PM 39.9 °F 32.5 °F 27.0 °F 60% 30.19 in 10.0 mi West 12.7 mph 23.0 mph N/A   Overcast
9:52 PM 39.9 °F 32.1 °F 26.1 °F 58% 30.19 in 10.0 mi West 13.8 mph 20.7 mph N/A   Overcast
10:52 PM 39.0 °F 31.8 °F 25.0 °F 57% 30.19 in 10.0 mi West 11.5 mph 18.4 mph N/A   Mostly Cloudy
11:52 PM 39.0 °F 30.6 °F 25.0 °F 57% 30.19 in 10.0 mi West 15.0 mph 20.7 mph N/A   Overcast